Location: Glenmont
(42.6048°N, 73.7696°W)
Time: 08:30:54
(UTC+00:00)

Cosmos 2100 Rocket - Pass Details

Date: 08 September 2024
Orbit: 954 x 1001 km, 82.9° (Epoch: 12 October)

Event Time Altitude Azimuth Distance (km) Brightness Sun altitude
Rises 23:32:01 0° 192° (SSW) 3,706 7.1 -3.7°
Reaches altitude 10° 23:34:32 10° 194° (SSW) 2,763 6.4 -4.2°
Maximum altitude 23:40:53 72° 279° (W) 1,053 4.5 -5.3°
Drops below altitude 10° 23:47:16 10° 4° (N) 2,776 6.5 -6.4°
Sets 23:49:49 0° 6° (N) 3,725 7.1 -6.9°
